Weather in Williston

United States     48°09′15″N   103°37′32″W
temp.,
°C
wind,
m/s
gust,
m/s
humid.,
%
clouds,
%
prec.,
mm/h
press.,
hPa
HPBL,
m
18 may, tue
tue1801:00+16s714670 0.0 1009524
04:00+14sse614770 0.0 1008467
07:00+14sse512831 0.0 1007409
10:00+19s6860100 0.0 1006663
13:00+25s773970 0.0 10031746
16:00+28s66285 0.0 10012834
19:00+28ssw45244 0.0 9992953
22:00+21wnw2248100 0.0 100146
19 may, wed
wed1901:00+19nw7125292 0.6 1004617
04:00+14nnw5135435 0.4 1007533
07:00+13nw494380 0.4 1009321
10:00+17nw562919 0.0 1011962
13:00+20nw552252 0.1 10111266
16:00+21nw3319100 0.0 10111611
19:00+20nne3424100 0.0 10101372
22:00+16nne41030100 0.0 1011323
20 may, thu
thu2001:00+15ne81331100 0.0 1011565
04:00+12ne9144296 0.0 1012755
07:00+10nne101645100 0.0 1013780
10:00+10ne91449100 0.0 1014867
13:00+9ne91164100 0.7 1016755
16:00+9ne91167100 0.0 1016737
19:00+8ene91470100 0.3 1015661
22:00+5ene81583100 1.9 1017568
21 may, fri
fri2101:00+5ne81485100 5.3 1017562
04:00+5ne71188100 2.6 1017485
07:00+5ne71292100 3.9 1017394
10:00+6ne5890100 0.3 1017399
13:00+7nne4591100 0.8 1019344
16:00+7n5694100 1.0 1020430
19:00+7n3593100 1.3 1021345
22:00+6n5995100 0.3 1021422
22 may, sat
sat2201:00+5n61094100 0.7 1022362
04:00+4n61093100 0.8 1023366
07:00+4n5895100 4.2 1024374
10:00+4n5793100 3.8 1025355
13:00+4n3491100 4.2 1025335
16:00+5nne4588100 0.0 1024372
19:00+6ne3487100 0.0 1024356
22:00+6ene2592100 0.0 1023298